TimeCST,TemperatureF,Dew PointF,Humidity,Sea Level PressureIn,VisibilityMPH,Wind Direction,Wind SpeedMPH,Gust SpeedMPH,PrecipitationIn,Events,Conditions,WindDirDegrees,DateUTC
12:40 AM,64.4,64.4,100,30.11,8.0,SSE,8.1,-,N/A,,Overcast,150,2013-01-29 06:40:00
12:53 AM,66.0,64.0,93,30.10,8.0,SSE,8.1,-,N/A,,Overcast,160,2013-01-29 06:53:00
1:53 AM,64.9,64.0,97,30.09,7.0,South,6.9,-,N/A,,Overcast,170,2013-01-29 07:53:00
2:53 AM,64.9,64.9,100,30.07,3.0,SSE,5.8,-,N/A,,Overcast,160,2013-01-29 08:53:00
3:53 AM,64.9,64.9,100,30.04,10.0,SSE,8.1,-,N/A,,Overcast,160,2013-01-29 09:53:00
4:53 AM,64.9,64.9,100,30.04,10.0,SSE,8.1,-,N/A,,Overcast,160,2013-01-29 10:53:00
5:53 AM,64.9,64.0,97,30.03,10.0,SSE,5.8,-,N/A,,Overcast,150,2013-01-29 11:53:00
6:53 AM,66.0,64.0,93,30.02,9.0,SSE,8.1,-,N/A,,Overcast,150,2013-01-29 12:53:00
7:53 AM,66.0,64.9,96,30.03,10.0,SSE,11.5,-,N/A,,Overcast,160,2013-01-29 13:53:00
8:17 AM,66.2,64.4,94,30.04,10.0,South,11.5,-,N/A,,Overcast,170,2013-01-29 14:17:00
8:53 AM,66.9,64.9,93,30.03,10.0,SSE,11.5,-,N/A,,Overcast,160,2013-01-29 14:53:00
9:53 AM,69.1,64.9,87,30.02,10.0,South,10.4,-,0.01,,Overcast,180,2013-01-29 15:53:00
10:53 AM,69.1,64.9,87,30.01,10.0,South,12.7,-,N/A,,Overcast,170,2013-01-29 16:53:00
11:53 AM,70.0,66.0,87,29.99,10.0,South,8.1,-,N/A,,Overcast,180,2013-01-29 17:53:00
12:53 PM,73.0,66.0,79,29.92,10.0,SSE,12.7,-,N/A,,Overcast,160,2013-01-29 18:53:00
1:53 PM,78.1,64.9,64,29.87,10.0,South,18.4,27.6,N/A,,Scattered Clouds,180,2013-01-29 19:53:00
2:53 PM,77.0,64.9,66,29.86,10.0,South,16.1,23.0,N/A,,Mostly Cloudy,170,2013-01-29 20:53:00
3:53 PM,78.1,63.0,60,29.84,10.0,South,16.1,-,N/A,,Scattered Clouds,180,2013-01-29 21:53:00
4:53 PM,75.0,64.0,69,29.82,10.0,SSE,17.3,27.6,N/A,,Clear,160,2013-01-29 22:53:00
5:53 PM,73.0,66.0,79,29.81,10.0,SSE,16.1,-,N/A,,Mostly Cloudy,160,2013-01-29 23:53:00
6:53 PM,72.0,66.9,84,29.82,10.0,South,15.0,21.9,N/A,,Overcast,170,2013-01-30 00:53:00
7:53 PM,72.0,66.9,84,29.82,10.0,South,13.8,24.2,N/A,,Overcast,170,2013-01-30 01:53:00
8:53 PM,72.0,66.9,84,29.78,10.0,South,20.7,31.1,N/A,,Overcast,170,2013-01-30 02:53:00
9:53 PM,71.1,66.9,87,29.76,10.0,South,21.9,28.8,N/A,,Overcast,170,2013-01-30 03:53:00
10:53 PM,72.0,66.9,84,29.76,10.0,South,18.4,31.1,N/A,,Overcast,180,2013-01-30 04:53:00
11:53 PM,72.0,66.9,84,29.74,10.0,South,15.0,-,N/A,,Overcast,180,2013-01-30 05:53:00